SWA75W MRLB-MSLP

Flight info

Callsign SWA75W
Flight time 0h 52m
Altitude 36000
Route PULIN DCT LISPA UA502 MGA UA317 GABOS DCT UMIPI UMIPI2M
Aircraft B737/M-SDE2E3FGHIRWXY/LB1

Departure

Time 2026-04-22 20:47
Airport Daniel Oduber Quirós International Airport (MRLB)

Arrival

Time 2026-04-22 21:39
Airport El Salvador International Airport Saint Óscar Arnulfo Romero y Galdámez (MSLP)
Time Latitude Longitude Altitude Speed Heading
2026-04-22 20:09 10.59985 -85.53566 272 ft 0 kts 339°
2026-04-22 20:37 10.59983 -85.53566 272 ft 3 kts 339°
2026-04-22 20:37 10.59958 -85.53556 272 ft 4 kts 339°
2026-04-22 20:37 10.59933 -85.53547 274 ft 4 kts 339°
2026-04-22 20:38 10.59908 -85.53536 272 ft 4 kts 332°
2026-04-22 20:38 10.59887 -85.53523 272 ft 2 kts 328°
2026-04-22 20:38 10.59886 -85.53523 272 ft 2 kts 328°
2026-04-22 20:41 10.59888 -85.53526 272 ft 1 kts 308°
2026-04-22 20:41 10.59888 -85.53553 274 ft 6 kts 263°
2026-04-22 20:42 10.59872 -85.53601 272 ft 8 kts 249°
2026-04-22 20:42 10.59850 -85.53660 271 ft 10 kts 249°
2026-04-22 20:42 10.59821 -85.53738 270 ft 14 kts 249°
2026-04-22 20:42 10.59786 -85.53837 270 ft 16 kts 250°
2026-04-22 20:43 10.59716 -85.53866 269 ft 13 kts 161°
2026-04-22 20:43 10.59620 -85.53832 269 ft 16 kts 161°
2026-04-22 20:43 10.59540 -85.53885 269 ft 18 kts 249°
2026-04-22 20:43 10.59492 -85.54019 267 ft 22 kts 250°
2026-04-22 20:44 10.59436 -85.54174 266 ft 25 kts 250°
2026-04-22 20:44 10.59373 -85.54350 263 ft 28 kts 250°
2026-04-22 20:44 10.59303 -85.54545 261 ft 31 kts 250°
2026-04-22 20:44 10.59226 -85.54756 258 ft 33 kts 250°
2026-04-22 20:45 10.59147 -85.54979 259 ft 34 kts 250°
2026-04-22 20:45 10.59064 -85.55208 259 ft 35 kts 250°
2026-04-22 20:45 10.59068 -85.55439 256 ft 34 kts 294°
2026-04-22 20:45 10.59088 -85.55630 254 ft 26 kts 244°
2026-04-22 20:46 10.58950 -85.55523 255 ft 23 kts 70°
2026-04-22 20:46 10.59107 -85.55087 259 ft 105 kts 69°
2026-04-22 20:46 10.59429 -85.54186 302 ft 164 kts 70°
2026-04-22 20:47 10.59835 -85.53096 1106 ft 163 kts 69°
2026-04-22 20:47 10.60273 -85.52006 1976 ft 171 kts 69°
2026-04-22 20:47 10.60753 -85.50832 2611 ft 192 kts 68°
2026-04-22 20:47 10.61300 -85.49488 2951 ft 224 kts 68°
2026-04-22 20:48 10.62015 -85.47915 3217 ft 260 kts 55°
2026-04-22 20:48 10.63431 -85.46748 3983 ft 270 kts 21°
2026-04-22 20:48 10.65261 -85.46503 5004 ft 271 kts 359°
2026-04-22 20:48 10.67156 -85.46619 6030 ft 275 kts 356°
2026-04-22 20:49 10.69088 -85.46775 6986 ft 282 kts 356°
2026-04-22 20:49 10.71068 -85.46949 8021 ft 286 kts 356°
2026-04-22 20:49 10.73048 -85.47110 9142 ft 288 kts 357°
2026-04-22 20:49 10.75069 -85.47238 10165 ft 293 kts 358°
2026-04-22 20:50 10.77164 -85.47345 10886 ft 313 kts 359°
2026-04-22 20:50 10.79440 -85.47447 11335 ft 337 kts 359°
2026-04-22 20:50 10.81811 -85.47547 12257 ft 344 kts 359°
2026-04-22 20:50 10.84211 -85.47645 13274 ft 348 kts 359°
2026-04-22 20:51 10.86644 -85.47743 14275 ft 352 kts 359°
2026-04-22 20:51 10.89109 -85.47841 15218 ft 357 kts 359°
2026-04-22 20:51 10.91609 -85.47940 16163 ft 361 kts 359°
2026-04-22 20:51 10.94139 -85.48039 17051 ft 366 kts 359°
2026-04-22 20:52 10.96707 -85.48140 17893 ft 372 kts 359°
2026-04-22 20:52 10.99283 -85.48240 18693 ft 377 kts 359°
2026-04-22 20:52 11.01922 -85.48343 19500 ft 382 kts 359°
2026-04-22 20:52 11.04596 -85.48448 19943 ft 387 kts 359°
2026-04-22 20:53 11.07299 -85.48555 20109 ft 388 kts 359°
2026-04-22 20:53 11.09988 -85.48661 20109 ft 386 kts 359°
2026-04-22 20:53 11.12699 -85.48767 20429 ft 393 kts 359°
2026-04-22 20:53 11.15443 -85.48875 21206 ft 395 kts 359°
2026-04-22 20:54 11.18196 -85.48983 22023 ft 397 kts 359°
2026-04-22 20:54 11.20970 -85.49092 22737 ft 401 kts 359°
2026-04-22 20:54 11.23774 -85.49201 23396 ft 405 kts 359°
2026-04-22 20:54 11.26609 -85.49313 24027 ft 409 kts 359°
2026-04-22 20:55 11.29460 -85.49425 24628 ft 413 kts 359°
2026-04-22 20:55 11.32352 -85.49538 25176 ft 418 kts 358°
2026-04-22 20:55 11.35280 -85.49671 25693 ft 424 kts 355°
2026-04-22 20:55 11.38183 -85.50292 26174 ft 430 kts 341°
2026-04-22 20:56 11.40908 -85.51583 26684 ft 435 kts 328°
2026-04-22 20:56 11.42575 -85.52810 27037 ft 438 kts 320°
2026-04-22 20:56 11.44855 -85.54820 27537 ft 441 kts 318°
2026-04-22 20:56 11.47143 -85.56922 28030 ft 445 kts 317°
2026-04-22 20:57 11.49452 -85.59065 28490 ft 449 kts 317°
2026-04-22 20:57 11.51803 -85.61237 28966 ft 453 kts 317°
2026-04-22 20:57 11.54159 -85.63394 29403 ft 456 kts 317°
2026-04-22 20:57 11.56538 -85.65554 29843 ft 460 kts 317°
2026-04-22 20:58 11.58936 -85.67719 30327 ft 461 kts 317°
2026-04-22 20:58 11.61341 -85.69884 30946 ft 459 kts 317°
2026-04-22 20:58 11.63728 -85.72031 31622 ft 456 kts 317°
2026-04-22 20:58 11.66101 -85.74166 32275 ft 454 kts 317°
2026-04-22 20:59 11.68473 -85.76299 32902 ft 453 kts 317°
2026-04-22 20:59 11.70833 -85.78425 33529 ft 451 kts 316°
2026-04-22 20:59 11.73176 -85.80534 34120 ft 449 kts 316°
2026-04-22 20:59 11.75517 -85.82642 34669 ft 448 kts 316°
2026-04-22 21:00 11.77843 -85.84738 35179 ft 447 kts 316°
2026-04-22 21:00 11.80170 -85.86836 35676 ft 446 kts 316°
2026-04-22 21:00 11.82505 -85.88943 35930 ft 449 kts 316°
2026-04-22 21:00 11.84853 -85.91063 35912 ft 451 kts 316°
2026-04-22 21:01 11.89526 -85.95278 35904 ft 444 kts 316°
2026-04-22 21:01 11.94166 -85.99467 35915 ft 446 kts 316°
2026-04-22 21:02 11.98789 -86.03644 35907 ft 447 kts 316°
2026-04-22 21:02 12.03453 -86.07859 35901 ft 448 kts 316°
2026-04-22 21:03 12.08158 -86.12113 35890 ft 449 kts 316°
2026-04-22 21:03 12.13082 -86.16851 35883 ft 444 kts 307°
2026-04-22 21:04 12.16290 -86.22157 35899 ft 437 kts 292°
2026-04-22 21:04 12.18786 -86.27779 35889 ft 436 kts 291°
2026-04-22 21:05 12.21266 -86.33414 35887 ft 435 kts 292°
2026-04-22 21:05 12.23797 -86.39076 35891 ft 435 kts 292°
2026-04-22 21:06 12.26328 -86.44695 35893 ft 435 kts 292°
2026-04-22 21:06 12.28864 -86.50316 35898 ft 435 kts 292°
2026-04-22 21:07 12.31397 -86.55936 35898 ft 434 kts 292°
2026-04-22 21:07 12.33908 -86.61510 35911 ft 434 kts 292°
2026-04-22 21:08 12.36448 -86.67157 35910 ft 434 kts 292°
2026-04-22 21:08 12.38966 -86.72760 35912 ft 433 kts 292°
2026-04-22 21:09 12.41458 -86.78306 35913 ft 431 kts 292°
2026-04-22 21:09 12.43552 -86.82965 35919 ft 429 kts 292°
2026-04-22 21:10 12.46455 -86.89436 35920 ft 428 kts 292°
2026-04-22 21:10 12.48631 -86.94290 35912 ft 428 kts 292°
2026-04-22 21:11 12.50898 -86.99347 35919 ft 428 kts 292°
2026-04-22 21:11 12.53709 -87.05624 35921 ft 428 kts 292°
2026-04-22 21:12 12.56175 -87.11134 35917 ft 428 kts 292°
2026-04-22 21:12 12.58677 -87.16725 35477 ft 432 kts 292°
2026-04-22 21:13 12.59923 -87.19505 34934 ft 429 kts 292°
2026-04-22 21:13 12.61164 -87.22272 34496 ft 423 kts 292°
2026-04-22 21:13 12.62372 -87.24969 34029 ft 419 kts 292°
2026-04-22 21:13 12.63598 -87.27708 33581 ft 415 kts 292°
2026-04-22 21:14 12.64326 -87.29336 33314 ft 412 kts 292°
2026-04-22 21:14 12.65989 -87.33057 32695 ft 407 kts 293°
2026-04-22 21:14 12.66798 -87.34865 32399 ft 405 kts 293°
2026-04-22 21:14 12.68372 -87.38389 31815 ft 400 kts 293°
2026-04-22 21:15 12.69524 -87.40972 31388 ft 397 kts 293°
2026-04-22 21:15 12.70672 -87.43546 30965 ft 394 kts 293°
2026-04-22 21:15 12.71424 -87.45233 30689 ft 392 kts 293°
2026-04-22 21:15 12.72928 -87.48605 30138 ft 388 kts 293°
2026-04-22 21:16 12.73684 -87.50301 29859 ft 386 kts 293°
2026-04-22 21:16 12.74794 -87.52792 29445 ft 382 kts 293°
2026-04-22 21:16 12.75893 -87.55257 29022 ft 379 kts 293°
2026-04-22 21:16 12.76983 -87.57702 28584 ft 376 kts 293°
2026-04-22 21:17 12.78065 -87.60131 28154 ft 373 kts 294°
2026-04-22 21:17 12.79151 -87.62570 27712 ft 369 kts 294°
2026-04-22 21:17 12.80200 -87.64927 27299 ft 367 kts 294°
2026-04-22 21:17 12.81255 -87.67298 26880 ft 364 kts 294°
2026-04-22 21:18 12.82301 -87.69651 26446 ft 361 kts 294°
2026-04-22 21:18 12.83354 -87.72019 26020 ft 358 kts 294°
2026-04-22 21:18 12.84369 -87.74301 25606 ft 356 kts 294°
2026-04-22 21:18 12.85405 -87.76633 25186 ft 354 kts 294°
2026-04-22 21:19 12.86432 -87.78942 24783 ft 356 kts 295°
2026-04-22 21:19 12.87466 -87.81269 24348 ft 361 kts 295°
2026-04-22 21:19 12.88513 -87.83626 23837 ft 367 kts 295°
2026-04-22 21:19 12.89572 -87.86008 23383 ft 366 kts 295°
2026-04-22 21:20 12.90621 -87.88368 22936 ft 362 kts 295°
2026-04-22 21:20 12.91664 -87.90717 22482 ft 359 kts 295°
2026-04-22 21:20 12.92690 -87.93026 22054 ft 355 kts 295°
2026-04-22 21:20 12.93707 -87.95316 21637 ft 351 kts 295°
2026-04-22 21:21 12.94714 -87.97587 21203 ft 348 kts 295°
2026-04-22 21:21 12.95709 -87.99830 20779 ft 344 kts 295°
2026-04-22 21:21 12.96694 -88.02054 20357 ft 341 kts 295°
2026-04-22 21:21 12.97673 -88.04262 19938 ft 338 kts 295°
2026-04-22 21:22 12.98640 -88.06442 19535 ft 335 kts 295°
2026-04-22 21:22 12.99602 -88.08613 19114 ft 332 kts 295°
2026-04-22 21:22 13.00553 -88.10761 18695 ft 329 kts 295°
2026-04-22 21:22 13.01495 -88.12887 18308 ft 326 kts 295°
2026-04-22 21:23 13.02425 -88.14989 17972 ft 321 kts 295°
2026-04-22 21:23 13.03346 -88.17069 17578 ft 318 kts 295°
2026-04-22 21:23 13.04259 -88.19133 17189 ft 316 kts 295°
2026-04-22 21:23 13.05163 -88.21175 16794 ft 313 kts 295°
2026-04-22 21:24 13.06058 -88.23200 16407 ft 311 kts 295°
2026-04-22 21:24 13.06948 -88.25213 16012 ft 309 kts 295°
2026-04-22 21:24 13.07834 -88.27217 15631 ft 308 kts 295°
2026-04-22 21:24 13.08720 -88.29222 15267 ft 306 kts 295°
2026-04-22 21:25 13.09591 -88.31204 14899 ft 306 kts 295°
2026-04-22 21:25 13.10473 -88.33216 14527 ft 312 kts 295°
2026-04-22 21:25 13.11372 -88.35266 14130 ft 319 kts 295°
2026-04-22 21:25 13.12283 -88.37344 13710 ft 318 kts 295°
2026-04-22 21:26 13.13187 -88.39407 13311 ft 315 kts 295°
2026-04-22 21:26 13.14079 -88.41443 12900 ft 312 kts 295°
2026-04-22 21:26 13.14977 -88.43489 12490 ft 308 kts 295°
2026-04-22 21:26 13.15852 -88.45487 12094 ft 305 kts 295°
2026-04-22 21:27 13.16717 -88.47460 11687 ft 302 kts 295°
2026-04-22 21:27 13.17577 -88.49420 11298 ft 299 kts 295°
2026-04-22 21:27 13.18427 -88.51356 10910 ft 297 kts 295°
2026-04-22 21:27 13.19275 -88.53288 10527 ft 295 kts 295°
2026-04-22 21:28 13.20114 -88.55198 10147 ft 292 kts 295°
2026-04-22 21:28 13.20930 -88.57062 10024 ft 280 kts 295°
2026-04-22 21:28 13.21716 -88.58859 9734 ft 276 kts 295°
2026-04-22 21:28 13.22506 -88.60661 9411 ft 274 kts 295°
2026-04-22 21:29 13.23282 -88.62432 9081 ft 272 kts 295°
2026-04-22 21:29 13.24060 -88.64209 8768 ft 276 kts 295°
2026-04-22 21:29 13.24860 -88.66032 8434 ft 284 kts 295°
2026-04-22 21:29 13.25687 -88.67922 8071 ft 285 kts 295°
2026-04-22 21:30 13.26483 -88.69744 7726 ft 283 kts 295°
2026-04-22 21:30 13.27296 -88.71604 7380 ft 280 kts 295°
2026-04-22 21:30 13.28082 -88.73400 7026 ft 278 kts 295°
2026-04-22 21:30 13.28872 -88.75207 6673 ft 277 kts 295°
2026-04-22 21:31 13.29666 -88.77021 6339 ft 273 kts 295°
2026-04-22 21:31 13.30427 -88.78767 6013 ft 270 kts 295°
2026-04-22 21:31 13.31189 -88.80517 5668 ft 267 kts 295°
2026-04-22 21:31 13.31947 -88.82255 5345 ft 265 kts 295°
2026-04-22 21:32 13.32698 -88.83978 4964 ft 265 kts 295°
2026-04-22 21:32 13.33448 -88.85699 4626 ft 263 kts 295°
2026-04-22 21:32 13.34190 -88.87406 4291 ft 261 kts 294°
2026-04-22 21:32 13.35119 -88.88986 3930 ft 260 kts 317°
2026-04-22 21:33 13.36655 -88.89882 3624 ft 254 kts 348°
2026-04-22 21:33 13.38361 -88.89925 3446 ft 236 kts
2026-04-22 21:33 13.39917 -88.89612 3320 ft 219 kts 14°
2026-04-22 21:33 13.41350 -88.89344 3238 ft 202 kts
2026-04-22 21:34 13.42706 -88.89254 3148 ft 189 kts
2026-04-22 21:34 13.43990 -88.89281 3053 ft 178 kts 354°
2026-04-22 21:34 13.45195 -88.89469 3006 ft 173 kts 351°
2026-04-22 21:34 13.46383 -88.89671 2949 ft 175 kts 351°
2026-04-22 21:35 13.47542 -88.90063 2793 ft 178 kts 326°
2026-04-22 21:35 13.48374 -88.90962 2630 ft 173 kts 297°
2026-04-22 21:35 13.48552 -88.92144 2510 ft 169 kts 257°
2026-04-22 21:35 13.48286 -88.93334 2283 ft 168 kts 256°
2026-04-22 21:36 13.48008 -88.94439 2097 ft 151 kts 252°
2026-04-22 21:36 13.47687 -88.95433 1891 ft 143 kts 250°
2026-04-22 21:36 13.47355 -88.96385 1697 ft 141 kts 249°
2026-04-22 21:36 13.47018 -88.97338 1511 ft 142 kts 249°
2026-04-22 21:37 13.46684 -88.98280 1324 ft 140 kts 249°
2026-04-22 21:37 13.46352 -88.99216 1135 ft 140 kts 249°
2026-04-22 21:37 13.46023 -89.00159 954 ft 144 kts 250°
2026-04-22 21:37 13.45681 -89.01144 746 ft 143 kts 249°
2026-04-22 21:38 13.45337 -89.02084 556 ft 137 kts 249°
2026-04-22 21:38 13.45011 -89.03011 388 ft 139 kts 250°
2026-04-22 21:38 13.44679 -89.03951 202 ft 140 kts 250°
2026-04-22 21:38 13.44353 -89.04858 101 ft 126 kts 249°
2026-04-22 21:39 13.44099 -89.05564 90 ft 84 kts 250°
2026-04-22 21:39 13.43948 -89.05987 87 ft 42 kts 250°
2026-04-22 21:39 13.43861 -89.06227 87 ft 34 kts 250°
2026-04-22 21:39 13.43884 -89.06381 85 ft 20 kts 340°
2026-04-22 21:40 13.43977 -89.06406 84 ft 11 kts 27°
2026-04-22 21:40 13.44010 -89.06333 87 ft 11 kts 70°
2026-04-22 21:40 13.44039 -89.06252 86 ft 13 kts 70°
2026-04-22 21:40 13.44071 -89.06164 88 ft 13 kts 70°
2026-04-22 21:41 13.44103 -89.06075 87 ft 13 kts 70°
2026-04-22 21:41 13.44134 -89.05986 88 ft 14 kts 70°
2026-04-22 21:41 13.44157 -89.05921 91 ft 15 kts 70°
2026-04-22 21:41 13.44197 -89.05811 90 ft 18 kts 70°
2026-04-22 21:42 13.44242 -89.05686 91 ft 20 kts 70°
2026-04-22 21:42 13.44289 -89.05555 93 ft 19 kts 70°
2026-04-22 21:42 13.44333 -89.05431 95 ft 16 kts 70°
2026-04-22 21:42 13.44411 -89.05413 95 ft 15 kts 298°
2026-04-22 21:43 13.44391 -89.05517 94 ft 15 kts 248°
2026-04-22 21:43 13.44363 -89.05600 93 ft 3 kts 266°
2026-04-22 21:43 13.44379 -89.05618 93 ft 4 kts 328°
2026-04-22 21:43 13.44404 -89.05628 94 ft 4 kts 342°
2026-04-22 21:44 13.44423 -89.05635 94 ft 2 kts 340°
2026-04-22 21:44 13.44429 -89.05637 93 ft 0 kts 341°